Minneapolis-Saint Paul International, MN

6:09 AM CDT on June 25, 2018 (GMT -0500)
Minneapolis-Saint Paul International

Weather History for KMSP - October, 2013

Change the Weather History Date:

Saturday, October 26, 2013

  Actual Average (KMSP) Record (KMSP)
Temperature  
Mean Temperature 43 °F 45 °F  
Max Temperature 50 °F 53 °F 83 °F (1955)
Min Temperature 36 °F 36 °F 16 °F (1962)
Degree Days  
Heating Degree Days 22 20  
Month to date heating degree days 372 397  
Since 1 July heating degree days 438 570  
Cooling Degree Days 0 0  
Month to date cooling degree days 2 3  
Year to date cooling degree days 983 750  
Moisture  
Dew Point 30 °F    
Average Humidity 62    
Maximum Humidity 75    
Minimum Humidity 49    
Precipitation  
Precipitation 0.00 in 0.06 in 1.54 in (1941)
Month to date precipitation 2.84 2.12  
Year to date precipitation 30.63 27.37  
Snow  
Snow 0.00 in 0.10 in 1.30 in (1959)
Month to date snowfall T 0.4  
Since 1 July snowfall T 0.4  
Since 1 September snowfall T 0.4  
Snow Depth 0.00 in    
Sea Level Pressure  
Sea Level Pressure 30.02 in    
Wind  
Wind Speed 11 mph (NW)    
Max Wind Speed 31 mph    
Max Gust Speed 39 mph    
Visibility 10 miles    
Events      
T = Trace of Precipitation, MM = Missing Value Source: NWS Daily Summary

Daily Weather History Graph

Daily Weather History Graph

Search for Another Location

Airport or City:

Astronomy

Oct. 26, 2013 Rise Set
Actual Time 7:43 AM CDT 6:09 PM CDT
Civil Twilight 7:13 AM CDT 6:39 PM CDT
Nautical Twilight 6:38 AM CDT 7:13 PM CDT
Astronomical Twilight 6:04 AM CDT 7:47 PM CDT
Moon No Moon Rise 2:01 PM CDT (10/26)
Length of Visible Light 11h 26m
Length of Day
10h 26m
Waning Gibbous, 53% of the Moon is Illuminated
Oct 26
Waning Gibbous
Oct 26
Last Quarter
Nov 3
New
Nov 9
First Quarter
Nov 17
Full

Hourly Weather History & Observations

Time (CDT) Temp. Windchill Dew Point Humidity Pressure Visibility Wind Dir Wind Speed Gust Speed Precip Events Conditions
12:53 AM 50.0 °F - 39.9 °F 68% 29.81 in 10.0 mi WNW 13.8 mph - N/A   Clear
1:53 AM 48.0 °F - 35.1 °F 61% 29.83 in 10.0 mi WNW 9.2 mph - N/A   Clear
2:53 AM 46.0 °F 41.0 °F 32.0 °F 58% 29.86 in 10.0 mi NW 10.4 mph 23.0 mph N/A   Clear
3:53 AM 44.1 °F 37.1 °F 28.0 °F 53% 29.86 in 10.0 mi WNW 15.0 mph - N/A   Clear
4:53 AM 42.1 °F 34.2 °F 27.0 °F 55% 29.89 in 10.0 mi NW 16.1 mph 29.9 mph N/A   Clear
5:53 AM 39.0 °F 31.4 °F 28.0 °F 65% 29.94 in 10.0 mi NW 12.7 mph 24.2 mph N/A   Partly Cloudy
6:53 AM 37.9 °F 29.2 °F 28.9 °F 70% 29.97 in 10.0 mi NW 15.0 mph - N/A   Partly Cloudy
7:53 AM 36.0 °F 28.0 °F 28.9 °F 76% 30.01 in 10.0 mi WNW 11.5 mph - N/A   Partly Cloudy
8:53 AM 37.9 °F 29.6 °F 28.9 °F 70% 30.03 in 10.0 mi NW 13.8 mph 23.0 mph N/A   Partly Cloudy
9:53 AM 41.0 °F 33.1 °F 28.9 °F 62% 30.05 in 10.0 mi NNW 15.0 mph 24.2 mph N/A   Partly Cloudy
10:53 AM 43.0 °F 36.0 °F 28.9 °F 58% 30.07 in 10.0 mi NNW 13.8 mph - N/A   Scattered Clouds
11:53 AM 44.1 °F 36.5 °F 28.9 °F 55% 30.10 in 10.0 mi NW 17.3 mph - N/A   Scattered Clouds
12:53 PM 45.0 °F 38.9 °F 30.0 °F 56% 30.10 in 10.0 mi NNW 12.7 mph 23.0 mph N/A   Mostly Cloudy
1:53 PM 46.0 °F 39.0 °F 28.9 °F 51% 30.10 in 10.0 mi NW 17.3 mph 23.0 mph N/A   Mostly Cloudy
2:53 PM 46.9 °F - 30.0 °F 52% 30.10 in 10.0 mi WNW 11.5 mph - N/A   Mostly Cloudy
3:53 PM 46.9 °F - 28.9 °F 50% 30.11 in 10.0 mi WNW 15.0 mph 20.7 mph N/A   Mostly Cloudy
4:53 PM 46.0 °F 41.0 °F 28.9 °F 51% 30.10 in 10.0 mi NW 10.4 mph - N/A   Mostly Cloudy
5:53 PM 45.0 °F 40.6 °F 28.9 °F 53% 30.10 in 10.0 mi WNW 8.1 mph - N/A   Overcast
6:53 PM 44.1 °F 38.6 °F 28.0 °F 53% 30.10 in 10.0 mi NW 10.4 mph - N/A   Overcast
7:53 PM 42.1 °F 35.7 °F 28.9 °F 60% 30.12 in 10.0 mi NW 11.5 mph - N/A   Overcast
8:53 PM 41.0 °F 36.4 °F 28.0 °F 60% 30.11 in 10.0 mi WNW 6.9 mph - N/A   Overcast
9:53 PM 41.0 °F 39.0 °F 28.0 °F 60% 30.10 in 10.0 mi WNW 3.5 mph - N/A   Overcast
10:53 PM 41.0 °F 39.0 °F 28.0 °F 60% 30.08 in 10.0 mi West 3.5 mph - N/A   Overcast
11:53 PM 39.9 °F 37.8 °F 28.0 °F 63% 30.06 in 10.0 mi SW 3.5 mph - N/A   Partly Cloudy